owner,sensor,date,latitude,longitude,air_temperature,qcFlag 
COMPS,ioos:station:USF.COMPS:SHP:1,2008-08-10T16:00:00Z,30.0600,-84.2910,30.76,1111122 
COMPS,ioos:station:USF.COMPS:SHP:1,2008-08-10T16:06:00Z,30.0600,-84.2910,31.02,1111122 
COMPS,ioos:station:USF.COMPS:SHP:1,2008-08-10T16:12:00Z,30.0600,-84.2910,31.12,1111122 
COMPS,ioos:station:USF.COMPS:SHP:1,2008-08-10T16:18:00Z,30.0600,-84.2910,31.07,1111122 
COMPS,ioos:station:USF.COMPS:SHP:1,2008-08-10T16:24:00Z,30.0600,-84.2910,31.03,1111122 
COMPS,ioos:station:USF.COMPS:SHP:1,2008-08-10T16:30:00Z,30.0600,-84.2910,31.16,1111122 
COMPS,ioos:station:USF.COMPS:SHP:1,2008-08-10T16:36:00Z,30.0600,-84.2910,31.34,1111122 
COMPS,ioos:station:USF.COMPS:SHP:1,2008-08-10T16:42:00Z,30.0600,-84.2910,31.15,1111122 
COMPS,ioos:station:USF.COMPS:SHP:1,2008-08-10T16:48:00Z,30.0600,-84.2910,31.17,1111122 
COMPS,ioos:station:USF.COMPS:SHP:1,2008-08-10T16:54:00Z,30.0600,-84.2910,31.4,1111122 
COMPS,ioos:station:USF.COMPS:SHP:1,2008-08-10T21:00:00Z,30.0600,-84.2910,31.09,1111122 
COMPS,ioos:station:USF.COMPS:SHP:1,2008-08-10T21:06:00Z,30.0600,-84.2910,31.1,1111122 
COMPS,ioos:station:USF.COMPS:SHP:1,2008-08-10T21:12:00Z,30.0600,-84.2910,31.04,1111122 
COMPS,ioos:station:USF.COMPS:SHP:1,2008-08-10T21:18:00Z,30.0600,-84.2910,30.94,1111122 
COMPS,ioos:station:USF.COMPS:SHP:1,2008-08-10T21:24:00Z,30.0600,-84.2910,30.92,1111122 
COMPS,ioos:station:USF.COMPS:SHP:1,2008-08-10T21:30:00Z,30.0600,-84.2910,30.72,1111122 
COMPS,ioos:station:USF.COMPS:SHP:1,2008-08-10T21:36:00Z,30.0600,-84.2910,31.03,1111122 
COMPS,ioos:station:USF.COMPS:SHP:1,2008-08-10T21:42:00Z,30.0600,-84.2910,31.25,1111122 
COMPS,ioos:station:USF.COMPS:SHP:1,2008-08-10T21:48:00Z,30.0600,-84.2910,31.04,1111122 
COMPS,ioos:station:USF.COMPS:SHP:1,2008-08-10T21:54:00Z,30.0600,-84.2910,31.02,1111122 
COMPS,ioos:station:USF.COMPS:SHP:1,2008-08-10T22:00:00Z,30.0600,-84.2910,30.8,1111122 
COMPS,ioos:station:USF.COMPS:SHP:1,2008-08-10T22:06:00Z,30.0600,-84.2910,30.94,1111122 
COMPS,ioos:station:USF.COMPS:SHP:1,2008-08-10T22:12:00Z,30.0600,-84.2910,30.7,1111122 
COMPS,ioos:station:USF.COMPS:SHP:1,2008-08-10T22:18:00Z,30.0600,-84.2910,30.69,1111122 
COMPS,ioos:station:USF.COMPS:SHP:1,2008-08-10T22:24:00Z,30.0600,-84.2910,30.58,1111122 
COMPS,ioos:station:USF.COMPS:SHP:1,2008-08-10T22:30:00Z,30.0600,-84.2910,30.37,1111122 
COMPS,ioos:station:USF.COMPS:SHP:1,2008-08-10T22:36:00Z,30.0600,-84.2910,30.26,1111122 
COMPS,ioos:station:USF.COMPS:SHP:1,2008-08-10T22:42:00Z,30.0600,-84.2910,30.36,1111122 
COMPS,ioos:station:USF.COMPS:SHP:1,2008-08-10T22:48:00Z,30.0600,-84.2910,30.44,1111122 
COMPS,ioos:station:USF.COMPS:SHP:1,2008-08-10T22:54:00Z,30.0600,-84.2910,30.29,1111122 
COMPS,ioos:station:USF.COMPS:SHP:1,2008-08-10T23:00:00Z,30.0600,-84.2910,30.43,1111122 
COMPS,ioos:station:USF.COMPS:SHP:1,2008-08-10T23:06:00Z,30.0600,-84.2910,30.58,1111122 
COMPS,ioos:station:USF.COMPS:SHP:1,2008-08-10T23:12:00Z,30.0600,-84.2910,30.69,1111122 
COMPS,ioos:station:USF.COMPS:SHP:1,2008-08-10T23:18:00Z,30.0600,-84.2910,30.83,1111122 
COMPS,ioos:station:USF.COMPS:SHP:1,2008-08-10T23:24:00Z,30.0600,-84.2910,31.1,1111122 
COMPS,ioos:station:USF.COMPS:SHP:1,2008-08-10T23:30:00Z,30.0600,-84.2910,31.13,1111122 
COMPS,ioos:station:USF.COMPS:SHP:1,2008-08-10T23:36:00Z,30.0600,-84.2910,31.17,1111122 
COMPS,ioos:station:USF.COMPS:SHP:1,2008-08-10T23:42:00Z,30.0600,-84.2910,31.01,1111122 
COMPS,ioos:station:USF.COMPS:SHP:1,2008-08-10T23:48:00Z,30.0600,-84.2910,30.88,1111122 
COMPS,ioos:station:USF.COMPS:SHP:1,2008-08-10T23:54:00Z,30.0600,-84.2910,30.65,1111122 
COMPS,ioos:station:USF.COMPS:SHP:1,2008-08-11T00:00:00Z,30.0600,-84.2910,30.44,1111122 
COMPS,ioos:station:USF.COMPS:SHP:1,2008-08-11T00:06:00Z,30.0600,-84.2910,30.25,1111122 
COMPS,ioos:station:USF.COMPS:SHP:1,2008-08-11T00:12:00Z,30.0600,-84.2910,30.02,1111122 
COMPS,ioos:station:USF.COMPS:SHP:1,2008-08-11T00:18:00Z,30.0600,-84.2910,29.82,1111122 
COMPS,ioos:station:USF.COMPS:SHP:1,2008-08-11T00:24:00Z,30.0600,-84.2910,29.95,1111122 
COMPS,ioos:station:USF.COMPS:SHP:1,2008-08-11T00:30:00Z,30.0600,-84.2910,29.92,1111122 
COMPS,ioos:station:USF.COMPS:SHP:1,2008-08-11T00:36:00Z,30.0600,-84.2910,29.92,1111122 
COMPS,ioos:station:USF.COMPS:SHP:1,2008-08-11T00:42:00Z,30.0600,-84.2910,29.74,1111122 
COMPS,ioos:station:USF.COMPS:SHP:1,2008-08-11T00:48:00Z,30.0600,-84.2910,29.6,1111122 
COMPS,ioos:station:USF.COMPS:SHP:1,2008-08-11T00:54:00Z,30.0600,-84.2910,29.37,1111122 
COMPS,ioos:station:USF.COMPS:SHP:1,2008-08-11T01:00:00Z,30.0600,-84.2910,29.22,1111122 
COMPS,ioos:station:USF.COMPS:SHP:1,2008-08-11T01:06:00Z,30.0600,-84.2910,29.1,1111122 
COMPS,ioos:station:USF.COMPS:SHP:1,2008-08-11T01:12:00Z,30.0600,-84.2910,29.06,1111122 
COMPS,ioos:station:USF.COMPS:SHP:1,2008-08-11T01:18:00Z,30.0600,-84.2910,28.92,1111122 
COMPS,ioos:station:USF.COMPS:SHP:1,2008-08-11T01:24:00Z,30.0600,-84.2910,28.85,1111122 
COMPS,ioos:station:USF.COMPS:SHP:1,2008-08-11T01:30:00Z,30.0600,-84.2910,28.8,1111122 
COMPS,ioos:station:USF.COMPS:SHP:1,2008-08-11T01:36:00Z,30.0600,-84.2910,28.74,1111122 
COMPS,ioos:station:USF.COMPS:SHP:1,2008-08-11T01:42:00Z,30.0600,-84.2910,28.68,1111122 
COMPS,ioos:station:USF.COMPS:SHP:1,2008-08-11T01:48:00Z,30.0600,-84.2910,28.67,1111122 
COMPS,ioos:station:USF.COMPS:SHP:1,2008-08-11T01:54:00Z,30.0600,-84.2910,28.62,1111122 
COMPS,ioos:station:USF.COMPS:SHP:1,2008-08-11T02:00:00Z,30.0600,-84.2910,28.51,1111122 
COMPS,ioos:station:USF.COMPS:SHP:1,2008-08-11T02:06:00Z,30.0600,-84.2910,28.4,1111122 
COMPS,ioos:station:USF.COMPS:SHP:1,2008-08-11T02:12:00Z,30.0600,-84.2910,28.28,1111122 
COMPS,ioos:station:USF.COMPS:SHP:1,2008-08-11T02:18:00Z,30.0600,-84.2910,28.2,1111122 
COMPS,ioos:station:USF.COMPS:SHP:1,2008-08-11T02:24:00Z,30.0600,-84.2910,28.14,1111122 
COMPS,ioos:station:USF.COMPS:SHP:1,2008-08-11T02:30:00Z,30.0600,-84.2910,28.02,1111122 
COMPS,ioos:station:USF.COMPS:SHP:1,2008-08-11T02:36:00Z,30.0600,-84.2910,27.94,1111122 
COMPS,ioos:station:USF.COMPS:SHP:1,2008-08-11T02:42:00Z,30.0600,-84.2910,27.8,1111122 
COMPS,ioos:station:USF.COMPS:SHP:1,2008-08-11T02:48:00Z,30.0600,-84.2910,27.61,1111122 
COMPS,ioos:station:USF.COMPS:SHP:1,2008-08-11T02:54:00Z,30.0600,-84.2910,27.55,1111122 
COMPS,ioos:station:USF.COMPS:SHP:1,2008-08-11T03:00:00Z,30.0600,-84.2910,27.45,1111122 
COMPS,ioos:station:USF.COMPS:SHP:1,2008-08-11T03:06:00Z,30.0600,-84.2910,27.36,1111122 
COMPS,ioos:station:USF.COMPS:SHP:1,2008-08-11T03:12:00Z,30.0600,-84.2910,27.24,1111122 
COMPS,ioos:station:USF.COMPS:SHP:1,2008-08-11T03:18:00Z,30.0600,-84.2910,27.19,1111122 
COMPS,ioos:station:USF.COMPS:SHP:1,2008-08-11T03:24:00Z,30.0600,-84.2910,27.09,1111122 
COMPS,ioos:station:USF.COMPS:SHP:1,2008-08-11T03:30:00Z,30.0600,-84.2910,26.95,1111122 
COMPS,ioos:station:USF.COMPS:SHP:1,2008-08-11T03:36:00Z,30.0600,-84.2910,26.92,1111122 
COMPS,ioos:station:USF.COMPS:SHP:1,2008-08-11T03:42:00Z,30.0600,-84.2910,26.83,1111122 
COMPS,ioos:station:USF.COMPS:SHP:1,2008-08-11T03:48:00Z,30.0600,-84.2910,26.65,1111122 
COMPS,ioos:station:USF.COMPS:SHP:1,2008-08-11T03:54:00Z,30.0600,-84.2910,26.5,1111122 
COMPS,ioos:station:USF.COMPS:SHP:1,2008-08-11T04:00:00Z,30.0600,-84.2910,26.39,1111122 
COMPS,ioos:station:USF.COMPS:SHP:1,2008-08-11T04:06:00Z,30.0600,-84.2910,24.3,1111122 
COMPS,ioos:station:USF.COMPS:SHP:1,2008-08-11T04:12:00Z,30.0600,-84.2910,26.26,1111122 
COMPS,ioos:station:USF.COMPS:SHP:1,2008-08-11T04:18:00Z,30.0600,-84.2910,26.24,1111122 
COMPS,ioos:station:USF.COMPS:SHP:1,2008-08-11T04:24:00Z,30.0600,-84.2910,26.25,1111122 
COMPS,ioos:station:USF.COMPS:SHP:1,2008-08-11T04:30:00Z,30.0600,-84.2910,26.15,1111122 
COMPS,ioos:station:USF.COMPS:SHP:1,2008-08-11T04:36:00Z,30.0600,-84.2910,26.05,1111122 
COMPS,ioos:station:USF.COMPS:SHP:1,2008-08-11T04:42:00Z,30.0600,-84.2910,26.01,1111122 
COMPS,ioos:station:USF.COMPS:SHP:1,2008-08-11T04:48:00Z,30.0600,-84.2910,25.93,1111122 
COMPS,ioos:station:USF.COMPS:SHP:1,2008-08-11T04:54:00Z,30.0600,-84.2910,25.88,1111122 
COMPS,ioos:station:USF.COMPS:SHP:1,2008-08-11T05:00:00Z,30.0600,-84.2910,25.82,1111122 
COMPS,ioos:station:USF.COMPS:SHP:1,2008-08-11T05:06:00Z,30.0600,-84.2910,25.7,1111122 
COMPS,ioos:station:USF.COMPS:SHP:1,2008-08-11T05:12:00Z,30.0600,-84.2910,25.71,1111122 
COMPS,ioos:station:USF.COMPS:SHP:1,2008-08-11T05:18:00Z,30.0600,-84.2910,25.64,1111122 
COMPS,ioos:station:USF.COMPS:SHP:1,2008-08-11T05:24:00Z,30.0600,-84.2910,25.58,1111122 
COMPS,ioos:station:USF.COMPS:SHP:1,2008-08-11T05:30:00Z,30.0600,-84.2910,25.55,1111122 
COMPS,ioos:station:USF.COMPS:SHP:1,2008-08-11T05:36:00Z,30.0600,-84.2910,25.5,1111122 
COMPS,ioos:station:USF.COMPS:SHP:1,2008-08-11T05:42:00Z,30.0600,-84.2910,25.48,1111122 
COMPS,ioos:station:USF.COMPS:SHP:1,2008-08-11T05:48:00Z,30.0600,-84.2910,25.43,1111122 
COMPS,ioos:station:USF.COMPS:SHP:1,2008-08-11T05:54:00Z,30.0600,-84.2910,25.42,1111122 
COMPS,ioos:station:USF.COMPS:SHP:1,2008-08-11T06:00:00Z,30.0600,-84.2910,25.3,1111122 
COMPS,ioos:station:USF.COMPS:SHP:1,2008-08-11T06:06:00Z,30.0600,-84.2910,25.29,1111122 
COMPS,ioos:station:USF.COMPS:SHP:1,2008-08-11T06:12:00Z,30.0600,-84.2910,25.2,1111122 
COMPS,ioos:station:USF.COMPS:SHP:1,2008-08-11T06:18:00Z,30.0600,-84.2910,25.16,1111122 
COMPS,ioos:station:USF.COMPS:SHP:1,2008-08-11T06:24:00Z,30.0600,-84.2910,25.17,1111122 
COMPS,ioos:station:USF.COMPS:SHP:1,2008-08-11T06:30:00Z,30.0600,-84.2910,25.14,1111122 
COMPS,ioos:station:USF.COMPS:SHP:1,2008-08-11T06:36:00Z,30.0600,-84.2910,25.16,1111122 
COMPS,ioos:station:USF.COMPS:SHP:1,2008-08-11T06:42:00Z,30.0600,-84.2910,25.21,1111122 
COMPS,ioos:station:USF.COMPS:SHP:1,2008-08-11T06:48:00Z,30.0600,-84.2910,25.16,1111122 
COMPS,ioos:station:USF.COMPS:SHP:1,2008-08-11T06:54:00Z,30.0600,-84.2910,25.12,1111122 
COMPS,ioos:station:USF.COMPS:SHP:1,2008-08-11T07:00:00Z,30.0600,-84.2910,25.01,1111122 
COMPS,ioos:station:USF.COMPS:SHP:1,2008-08-11T07:06:00Z,30.0600,-84.2910,25.02,1111122 
COMPS,ioos:station:USF.COMPS:SHP:1,2008-08-11T07:12:00Z,30.0600,-84.2910,24.99,1111122 
COMPS,ioos:station:USF.COMPS:SHP:1,2008-08-11T07:18:00Z,30.0600,-84.2910,25.03,1111122 
COMPS,ioos:station:USF.COMPS:SHP:1,2008-08-11T07:24:00Z,30.0600,-84.2910,25.05,1111122 
COMPS,ioos:station:USF.COMPS:SHP:1,2008-08-11T07:30:00Z,30.0600,-84.2910,25.05,1111122 
COMPS,ioos:station:USF.COMPS:SHP:1,2008-08-11T07:36:00Z,30.0600,-84.2910,25.17,1111122 
COMPS,ioos:station:USF.COMPS:SHP:1,2008-08-11T07:42:00Z,30.0600,-84.2910,25.23,1111122 
COMPS,ioos:station:USF.COMPS:SHP:1,2008-08-11T07:48:00Z,30.0600,-84.2910,25.18,1111122 
COMPS,ioos:station:USF.COMPS:SHP:1,2008-08-11T07:54:00Z,30.0600,-84.2910,25.19,1111122 
COMPS,ioos:station:USF.COMPS:SHP:1,2008-08-11T08:00:00Z,30.0600,-84.2910,25.12,1111122 
COMPS,ioos:station:USF.COMPS:SHP:1,2008-08-11T08:06:00Z,30.0600,-84.2910,24.88,1111122 
COMPS,ioos:station:USF.COMPS:SHP:1,2008-08-11T08:12:00Z,30.0600,-84.2910,24.79,1111122 
COMPS,ioos:station:USF.COMPS:SHP:1,2008-08-11T08:18:00Z,30.0600,-84.2910,24.77,1111122 
COMPS,ioos:station:USF.COMPS:SHP:1,2008-08-11T08:24:00Z,30.0600,-84.2910,24.58,1111122 
COMPS,ioos:station:USF.COMPS:SHP:1,2008-08-11T08:30:00Z,30.0600,-84.2910,24.46,1111122 
COMPS,ioos:station:USF.COMPS:SHP:1,2008-08-11T08:36:00Z,30.0600,-84.2910,24.51,1111122 
COMPS,ioos:station:USF.COMPS:SHP:1,2008-08-11T08:42:00Z,30.0600,-84.2910,24.56,1111122 
COMPS,ioos:station:USF.COMPS:SHP:1,2008-08-11T08:48:00Z,30.0600,-84.2910,24.56,1111122 
COMPS,ioos:station:USF.COMPS:SHP:1,2008-08-11T08:54:00Z,30.0600,-84.2910,24.44,1111122 
COMPS,ioos:station:USF.COMPS:SHP:1,2008-08-11T09:00:00Z,30.0600,-84.2910,24.4,1111122 
COMPS,ioos:station:USF.COMPS:SHP:1,2008-08-11T09:06:00Z,30.0600,-84.2910,24.4,1111122 
COMPS,ioos:station:USF.COMPS:SHP:1,2008-08-11T09:12:00Z,30.0600,-84.2910,24.5,1111122 
COMPS,ioos:station:USF.COMPS:SHP:1,2008-08-11T09:18:00Z,30.0600,-84.2910,24.37,1111122 
COMPS,ioos:station:USF.COMPS:SHP:1,2008-08-11T09:24:00Z,30.0600,-84.2910,24.38,1111122 
COMPS,ioos:station:USF.COMPS:SHP:1,2008-08-11T09:30:00Z,30.0600,-84.2910,24.26,1111122 
COMPS,ioos:station:USF.COMPS:SHP:1,2008-08-11T09:36:00Z,30.0600,-84.2910,24.11,1111122 
COMPS,ioos:station:USF.COMPS:SHP:1,2008-08-11T09:42:00Z,30.0600,-84.2910,24.15,1111122 
COMPS,ioos:station:USF.COMPS:SHP:1,2008-08-11T09:48:00Z,30.0600,-84.2910,24.11,1111122 
COMPS,ioos:station:USF.COMPS:SHP:1,2008-08-11T09:54:00Z,30.0600,-84.2910,24.12,1111122 
COMPS,ioos:station:USF.COMPS:SHP:1,2008-08-11T10:00:00Z,30.0600,-84.2910,24.17,1111122 
COMPS,ioos:station:USF.COMPS:SHP:1,2008-08-11T10:06:00Z,30.0600,-84.2910,24.25,1111122 
COMPS,ioos:station:USF.COMPS:SHP:1,2008-08-11T10:12:00Z,30.0600,-84.2910,24.24,1111122 
COMPS,ioos:station:USF.COMPS:SHP:1,2008-08-11T10:18:00Z,30.0600,-84.2910,24.12,1111122 
COMPS,ioos:station:USF.COMPS:SHP:1,2008-08-11T10:24:00Z,30.0600,-84.2910,24.11,1111122 
COMPS,ioos:station:USF.COMPS:SHP:1,2008-08-11T10:30:00Z,30.0600,-84.2910,24.04,1111122 
COMPS,ioos:station:USF.COMPS:SHP:1,2008-08-11T10:36:00Z,30.0600,-84.2910,23.93,1111122 
COMPS,ioos:station:USF.COMPS:SHP:1,2008-08-11T10:42:00Z,30.0600,-84.2910,23.87,1111122 
COMPS,ioos:station:USF.COMPS:SHP:1,2008-08-11T10:48:00Z,30.0600,-84.2910,23.9,1111122 
COMPS,ioos:station:USF.COMPS:SHP:1,2008-08-11T10:54:00Z,30.0600,-84.2910,23.97,1111122 
COMPS,ioos:station:USF.COMPS:SHP:1,2008-08-11T11:00:00Z,30.0600,-84.2910,24.08,1111122 
COMPS,ioos:station:USF.COMPS:SHP:1,2008-08-11T11:06:00Z,30.0600,-84.2910,24.14,1111122 
COMPS,ioos:station:USF.COMPS:SHP:1,2008-08-11T11:12:00Z,30.0600,-84.2910,24.31,1111122 
COMPS,ioos:station:USF.COMPS:SHP:1,2008-08-11T11:18:00Z,30.0600,-84.2910,24.38,1111122 
COMPS,ioos:station:USF.COMPS:SHP:1,2008-08-11T11:24:00Z,30.0600,-84.2910,24.48,1111122 
COMPS,ioos:station:USF.COMPS:SHP:1,2008-08-11T11:30:00Z,30.0600,-84.2910,24.5,1111122 
COMPS,ioos:station:USF.COMPS:SHP:1,2008-08-11T11:36:00Z,30.0600,-84.2910,24.5,1111122 
COMPS,ioos:station:USF.COMPS:SHP:1,2008-08-11T11:42:00Z,30.0600,-84.2910,24.54,1111122 
COMPS,ioos:station:USF.COMPS:SHP:1,2008-08-11T11:48:00Z,30.0600,-84.2910,24.5,1111122 
COMPS,ioos:station:USF.COMPS:SHP:1,2008-08-11T11:54:00Z,30.0600,-84.2910,24.52,1111122 
COMPS,ioos:station:USF.COMPS:SHP:1,2008-08-11T12:00:00Z,30.0600,-84.2910,24.64,1111122 
COMPS,ioos:station:USF.COMPS:SHP:1,2008-08-11T12:06:00Z,30.0600,-84.2910,24.77,1111122 
COMPS,ioos:station:USF.COMPS:SHP:1,2008-08-11T12:12:00Z,30.0600,-84.2910,24.82,1111122 
COMPS,ioos:station:USF.COMPS:SHP:1,2008-08-11T12:18:00Z,30.0600,-84.2910,24.94,1111122 
COMPS,ioos:station:USF.COMPS:SHP:1,2008-08-11T12:24:00Z,30.0600,-84.2910,25.16,1111122 
COMPS,ioos:station:USF.COMPS:SHP:1,2008-08-11T12:30:00Z,30.0600,-84.2910,25.14,1111122 
COMPS,ioos:station:USF.COMPS:SHP:1,2008-08-11T12:36:00Z,30.0600,-84.2910,25.3,1111122 
COMPS,ioos:station:USF.COMPS:SHP:1,2008-08-11T12:42:00Z,30.0600,-84.2910,25.5,1111122 
COMPS,ioos:station:USF.COMPS:SHP:1,2008-08-11T12:48:00Z,30.0600,-84.2910,25.76,1111122 
COMPS,ioos:station:USF.COMPS:SHP:1,2008-08-11T12:54:00Z,30.0600,-84.2910,25.89,1111122 
COMPS,ioos:station:USF.COMPS:SHP:1,2008-08-11T13:00:00Z,30.0600,-84.2910,25.95,1111122 
COMPS,ioos:station:USF.COMPS:SHP:1,2008-08-11T13:06:00Z,30.0600,-84.2910,25.88,1111122 
COMPS,ioos:station:USF.COMPS:SHP:1,2008-08-11T13:12:00Z,30.0600,-84.2910,25.97,1111122 
COMPS,ioos:station:USF.COMPS:SHP:1,2008-08-11T13:18:00Z,30.0600,-84.2910,26.1,1111122 
COMPS,ioos:station:USF.COMPS:SHP:1,2008-08-11T13:24:00Z,30.0600,-84.2910,26.41,1111122 
COMPS,ioos:station:USF.COMPS:SHP:1,2008-08-11T13:30:00Z,30.0600,-84.2910,26.45,1111122 
COMPS,ioos:station:USF.COMPS:SHP:1,2008-08-11T13:36:00Z,30.0600,-84.2910,26.49,1111122 
COMPS,ioos:station:USF.COMPS:SHP:1,2008-08-11T13:42:00Z,30.0600,-84.2910,26.64,1111122 
COMPS,ioos:station:USF.COMPS:SHP:1,2008-08-11T13:48:00Z,30.0600,-84.2910,26.82,1111122 
COMPS,ioos:station:USF.COMPS:SHP:1,2008-08-11T13:54:00Z,30.0600,-84.2910,27.16,1111122 
COMPS,ioos:station:USF.COMPS:SHP:1,2008-08-11T14:00:00Z,30.0600,-84.2910,27.47,1111122 
COMPS,ioos:station:USF.COMPS:SHP:1,2008-08-11T14:06:00Z,30.0600,-84.2910,27.69,1111122 
COMPS,ioos:station:USF.COMPS:SHP:1,2008-08-11T14:12:00Z,30.0600,-84.2910,28.03,1111122 
COMPS,ioos:station:USF.COMPS:SHP:1,2008-08-11T14:18:00Z,30.0600,-84.2910,28.31,1111122 
COMPS,ioos:station:USF.COMPS:SHP:1,2008-08-11T14:24:00Z,30.0600,-84.2910,28.58,1111122 
COMPS,ioos:station:USF.COMPS:SHP:1,2008-08-11T14:30:00Z,30.0600,-84.2910,28.87,1111122 
COMPS,ioos:station:USF.COMPS:SHP:1,2008-08-11T14:36:00Z,30.0600,-84.2910,29.22,1111122 
COMPS,ioos:station:USF.COMPS:SHP:1,2008-08-11T14:42:00Z,30.0600,-84.2910,29.35,1111122 
COMPS,ioos:station:USF.COMPS:SHP:1,2008-08-11T14:48:00Z,30.0600,-84.2910,29.72,1111122 
COMPS,ioos:station:USF.COMPS:SHP:1,2008-08-11T14:54:00Z,30.0600,-84.2910,29.72,1111122 
COMPS,ioos:station:USF.COMPS:SHP:1,2008-08-11T15:00:00Z,30.0600,-84.2910,29.71,1111122 
COMPS,ioos:station:USF.COMPS:SHP:1,2008-08-11T15:06:00Z,30.0600,-84.2910,29.93,1111122 
COMPS,ioos:station:USF.COMPS:SHP:1,2008-08-11T15:12:00Z,30.0600,-84.2910,29.93,1111122 
COMPS,ioos:station:USF.COMPS:SHP:1,2008-08-11T15:18:00Z,30.0600,-84.2910,29.84,1111122 
COMPS,ioos:station:USF.COMPS:SHP:1,2008-08-11T15:24:00Z,30.0600,-84.2910,29.79,1111122 
COMPS,ioos:station:USF.COMPS:SHP:1,2008-08-11T15:30:00Z,30.0600,-84.2910,29.78,1111122 
COMPS,ioos:station:USF.COMPS:SHP:1,2008-08-11T15:36:00Z,30.0600,-84.2910,29.82,1111122 
COMPS,ioos:station:USF.COMPS:SHP:1,2008-08-11T15:42:00Z,30.0600,-84.2910,29.85,1111122 
COMPS,ioos:station:USF.COMPS:SHP:1,2008-08-11T15:48:00Z,30.0600,-84.2910,29.9,1111122 
COMPS,ioos:station:USF.COMPS:SHP:1,2008-08-11T15:54:00Z,30.0600,-84.2910,29.73,1111122 
COMPS,ioos:station:USF.COMPS:SHP:1,2008-08-11T16:00:00Z,30.0600,-84.2910,29.83,1111122 
COMPS,ioos:station:USF.COMPS:SHP:1,2008-08-11T16:06:00Z,30.0600,-84.2910,29.79,1111122 
COMPS,ioos:station:USF.COMPS:SHP:1,2008-08-11T16:12:00Z,30.0600,-84.2910,29.69,1111122 
COMPS,ioos:station:USF.COMPS:SHP:1,2008-08-11T16:18:00Z,30.0600,-84.2910,29.61,1111122 
COMPS,ioos:station:USF.COMPS:SHP:1,2008-08-11T16:24:00Z,30.0600,-84.2910,29.58,1111122 
COMPS,ioos:station:USF.COMPS:SHP:1,2008-08-11T16:30:00Z,30.0600,-84.2910,29.58,1111122 
COMPS,ioos:station:USF.COMPS:SHP:1,2008-08-11T16:36:00Z,30.0600,-84.2910,29.65,1111122 
COMPS,ioos:station:USF.COMPS:SHP:1,2008-08-11T16:42:00Z,30.0600,-84.2910,30.0,1111122 
COMPS,ioos:station:USF.COMPS:SHP:1,2008-08-11T16:48:00Z,30.0600,-84.2910,30.13,1111122 
COMPS,ioos:station:USF.COMPS:SHP:1,2008-08-11T16:54:00Z,30.0600,-84.2910,30.26,1111122 
COMPS,ioos:station:USF.COMPS:SHP:1,2008-08-11T17:00:00Z,30.0600,-84.2910,30.17,1111122 
COMPS,ioos:station:USF.COMPS:SHP:1,2008-08-11T17:06:00Z,30.0600,-84.2910,30.38,1111122 
COMPS,ioos:station:USF.COMPS:SHP:1,2008-08-11T17:12:00Z,30.0600,-84.2910,30.39,1111122 
COMPS,ioos:station:USF.COMPS:SHP:1,2008-08-11T17:18:00Z,30.0600,-84.2910,30.21,1111122 
COMPS,ioos:station:USF.COMPS:SHP:1,2008-08-11T17:24:00Z,30.0600,-84.2910,30.38,1111122 
COMPS,ioos:station:USF.COMPS:SHP:1,2008-08-11T17:30:00Z,30.0600,-84.2910,30.58,1111122 
COMPS,ioos:station:USF.COMPS:SHP:1,2008-08-11T17:36:00Z,30.0600,-84.2910,30.43,1111122 
COMPS,ioos:station:USF.COMPS:SHP:1,2008-08-11T17:42:00Z,30.0600,-84.2910,30.58,1111122 
COMPS,ioos:station:USF.COMPS:SHP:1,2008-08-11T17:48:00Z,30.0600,-84.2910,30.81,1111122 
COMPS,ioos:station:USF.COMPS:SHP:1,2008-08-11T17:54:00Z,30.0600,-84.2910,31.06,1111122 
COMPS,ioos:station:USF.COMPS:SHP:1,2008-08-11T18:00:00Z,30.0600,-84.2910,31.05,1111122 
COMPS,ioos:station:USF.COMPS:SHP:1,2008-08-11T18:06:00Z,30.0600,-84.2910,31.23,1111122 
COMPS,ioos:station:USF.COMPS:SHP:1,2008-08-11T18:12:00Z,30.0600,-84.2910,31.29,1111122 
COMPS,ioos:station:USF.COMPS:SHP:1,2008-08-11T18:18:00Z,30.0600,-84.2910,31.33,1111122 
COMPS,ioos:station:USF.COMPS:SHP:1,2008-08-11T18:24:00Z,30.0600,-84.2910,31.4,1111122 
COMPS,ioos:station:USF.COMPS:SHP:1,2008-08-11T18:30:00Z,30.0600,-84.2910,31.56,1111122 
COMPS,ioos:station:USF.COMPS:SHP:1,2008-08-11T18:36:00Z,30.0600,-84.2910,31.51,1111122 
COMPS,ioos:station:USF.COMPS:SHP:1,2008-08-11T18:42:00Z,30.0600,-84.2910,31.85,1111122 
COMPS,ioos:station:USF.COMPS:SHP:1,2008-08-11T18:48:00Z,30.0600,-84.2910,31.64,1111122 
COMPS,ioos:station:USF.COMPS:SHP:1,2008-08-11T18:54:00Z,30.0600,-84.2910,31.33,1111122 
COMPS,ioos:station:USF.COMPS:SHP:1,2008-08-11T19:00:00Z,30.0600,-84.2910,30.3,1111122 
COMPS,ioos:station:USF.COMPS:SHP:1,2008-08-11T19:06:00Z,30.0600,-84.2910,29.28,1111122 
COMPS,ioos:station:USF.COMPS:SHP:1,2008-08-11T19:12:00Z,30.0600,-84.2910,29.49,1111122 
COMPS,ioos:station:USF.COMPS:SHP:1,2008-08-11T19:18:00Z,30.0600,-84.2910,30.16,1111122 
COMPS,ioos:station:USF.COMPS:SHP:1,2008-08-11T19:24:00Z,30.0600,-84.2910,30.86,1111122 
COMPS,ioos:station:USF.COMPS:SHP:1,2008-08-11T19:30:00Z,30.0600,-84.2910,30.83,1111122 
COMPS,ioos:station:USF.COMPS:SHP:1,2008-08-11T19:36:00Z,30.0600,-84.2910,30.81,1111122 
COMPS,ioos:station:USF.COMPS:SHP:1,2008-08-11T19:42:00Z,30.0600,-84.2910,30.63,1111122 
COMPS,ioos:station:USF.COMPS:SHP:1,2008-08-11T19:48:00Z,30.0600,-84.2910,30.19,1111122 
COMPS,ioos:station:USF.COMPS:SHP:1,2008-08-11T19:54:00Z,30.0600,-84.2910,27.69,1111122 
COMPS,ioos:station:USF.COMPS:SHP:1,2008-08-11T20:00:00Z,30.0600,-84.2910,26.61,1111122 
COMPS,ioos:station:USF.COMPS:SHP:1,2008-08-11T20:06:00Z,30.0600,-84.2910,26.12,1111122 
COMPS,ioos:station:USF.COMPS:SHP:1,2008-08-11T20:12:00Z,30.0600,-84.2910,26.03,1111122 
COMPS,ioos:station:USF.COMPS:SHP:1,2008-08-11T20:18:00Z,30.0600,-84.2910,25.65,1111122 
COMPS,ioos:station:USF.COMPS:SHP:1,2008-08-11T20:24:00Z,30.0600,-84.2910,25.3,1111122 
COMPS,ioos:station:USF.COMPS:SHP:1,2008-08-11T20:30:00Z,30.0600,-84.2910,24.59,1111122 
COMPS,ioos:station:USF.COMPS:SHP:1,2008-08-11T20:36:00Z,30.0600,-84.2910,24.6,1111122 
COMPS,ioos:station:USF.COMPS:SHP:1,2008-08-11T20:42:00Z,30.0600,-84.2910,24.61,1111122 
COMPS,ioos:station:USF.COMPS:SHP:1,2008-08-11T20:48:00Z,30.0600,-84.2910,24.82,1111122 
COMPS,ioos:station:USF.COMPS:SHP:1,2008-08-11T20:54:00Z,30.0600,-84.2910,25.31,1111122 
COMPS,ioos:station:USF.COMPS:SHP:1,2008-08-11T21:00:00Z,30.0600,-84.2910,25.68,1111122 
COMPS,ioos:station:USF.COMPS:SHP:1,2008-08-11T21:06:00Z,30.0600,-84.2910,25.89,1111122 
COMPS,ioos:station:USF.COMPS:SHP:1,2008-08-11T21:12:00Z,30.0600,-84.2910,26.09,1111122 
COMPS,ioos:station:USF.COMPS:SHP:1,2008-08-11T21:18:00Z,30.0600,-84.2910,26.37,1111122 
COMPS,ioos:station:USF.COMPS:SHP:1,2008-08-11T21:24:00Z,30.0600,-84.2910,26.79,1111122 
COMPS,ioos:station:USF.COMPS:SHP:1,2008-08-11T21:30:00Z,30.0600,-84.2910,27.04,1111122 
COMPS,ioos:station:USF.COMPS:SHP:1,2008-08-11T21:36:00Z,30.0600,-84.2910,27.11,1111122 
COMPS,ioos:station:USF.COMPS:SHP:1,2008-08-11T21:42:00Z,30.0600,-84.2910,27.21,1111122 
COMPS,ioos:station:USF.COMPS:SHP:1,2008-08-11T21:48:00Z,30.0600,-84.2910,27.4,1111122 
COMPS,ioos:station:USF.COMPS:SHP:1,2008-08-11T21:54:00Z,30.0600,-84.2910,27.38,1111122 
COMPS,ioos:station:USF.COMPS:SHP:1,2008-08-11T22:00:00Z,30.0600,-84.2910,27.45,1111122 
COMPS,ioos:station:USF.COMPS:SHP:1,2008-08-11T22:06:00Z,30.0600,-84.2910,27.26,1111122 
COMPS,ioos:station:USF.COMPS:SHP:1,2008-08-11T22:12:00Z,30.0600,-84.2910,27.15,1111122 
COMPS,ioos:station:USF.COMPS:SHP:1,2008-08-11T22:18:00Z,30.0600,-84.2910,27.05,1111122 
COMPS,ioos:station:USF.COMPS:SHP:1,2008-08-11T22:24:00Z,30.0600,-84.2910,26.9,1111122 
COMPS,ioos:station:USF.COMPS:SHP:1,2008-08-11T22:30:00Z,30.0600,-84.2910,26.85,1111122 
COMPS,ioos:station:USF.COMPS:SHP:1,2008-08-11T22:36:00Z,30.0600,-84.2910,26.56,1111122 
COMPS,ioos:station:USF.COMPS:SHP:1,2008-08-11T22:42:00Z,30.0600,-84.2910,26.65,1111122 
COMPS,ioos:station:USF.COMPS:SHP:1,2008-08-11T22:48:00Z,30.0600,-84.2910,26.73,1111122 
COMPS,ioos:station:USF.COMPS:SHP:1,2008-08-11T22:54:00Z,30.0600,-84.2910,26.78,1111122 
COMPS,ioos:station:USF.COMPS:SHP:1,2008-08-11T23:00:00Z,30.0600,-84.2910,26.83,1111122 
COMPS,ioos:station:USF.COMPS:SHP:1,2008-08-11T23:06:00Z,30.0600,-84.2910,27.02,1111122 